Overview Statistics Trail Chart Weather Telemetry Raw packets
 

This is the latest recevied weather packets stored in our database for station/object KD7AWQ. If no packets are shown the sender has not sent any weather packets the latest 10 day(s).

<< 13 14 15 16 17 18 19 >>
Time Temp. Humidity Pressure Rain* Wind** Luminosity Snow
1788356764 24.44° C 49% 1189.9 hPa 0 mm - 48 W/m² -
1788356464 24.44° C 49% 1189.8 hPa 0 mm - 55 W/m² -
1788356158 24.44° C 47% 1189.9 hPa 0 mm - 48 W/m² -
1788355853 24.44° C 45% 1189.7 hPa 0 mm - 38 W/m² -
1788355548 24.44° C 45% 1189.6 hPa 0 mm - 32 W/m² -
1788355243 24.44° C 45% 1189.5 hPa 0 mm - 27 W/m² -
1788354939 23.89° C 44% 1189.1 hPa 0 mm - 22 W/m² -
1788354634 23.89° C 44% 1189.6 hPa 0 mm - 17 W/m² -
1788354329 23.89° C 43% 1189.5 hPa 0 mm - 12 W/m² -
1788354025 23.89° C 43% 1189.2 hPa 0 mm - 8 W/m² -
1788353721 23.89° C 44% 1189.3 hPa 0 mm - 5 W/m² -
1788353416 23.89° C 44% 1189.2 hPa 0 mm - 2 W/m² -
1788353112 23.89° C 45% 1189.5 hPa 0 mm - 1 W/m² -
1788352807 23.89° C 44% 1189.1 hPa 0 mm - 0 W/m² -
1788352503 23.89° C 47% 1189.3 hPa 0 mm - 0 W/m² -
1788352202 24.44° C 42% 1189.2 hPa 0 mm - 0 W/m² -
1788351892 24.44° C 45% 1189.2 hPa 0 mm - 0 W/m² -
1788351587 25° C 42% 1189.2 hPa 0 mm - 0 W/m² -
1788351287 23.89° C 43% 1189.3 hPa 0 mm - 0 W/m² -
1788350982 23.89° C 45% 1188.9 hPa 0 mm - 0 W/m² -
1788350679 23.89° C 42% 1189 hPa 0 mm - 0 W/m² -
1788350378 23.33° C 45% 1188.9 hPa 0 mm - 0 W/m² -
1788350075 23.33° C 47% 1188.8 hPa 0 mm - 0 W/m² -
1788349771 23.33° C 47% 1189 hPa 0 mm - 0 W/m² -
1788349466 23.89° C 46% 1188.8 hPa 0 mm - 0 W/m² -

* Rain latest hour (hover to see other rain measurements)
** Current wind speed in m/s (hover to see current wind gust speed)